Regional Weather Roundup
Issued by NWS

Home | Current Version | Previous Version | Graphics & Text | Print | Product List | Glossary On
Versions: 1 2 3 4 5 6 7 8 9 10 11 12 13 14 15 16 17 18 19 20 21 22 23 24 25 26 27 28 29 30 31 32 33 34 35 36 37 38 39 40 41 42 43 44 45 46 47 48 49 50
000
ASUS43 KLSX 030359
RWRMO

WEATHER SUMMARY FOR MISSOURI
NATIONAL WEATHER SERVICE SPRINGFIELD MO
1100 PM CDT SUN AUG 02 2015

NOTE: "FAIR" INDICATES FEW OR NO CLOUDS BELOW 12,000 FEET WITH NO
       SIGNIFICANT WEATHER AND/OR OBSTRUCTIONS TO VISIBILITY.
       CURRENT SKY AND/OR WEATHER CONDITIONS ARE NOT AVAILABLE FOR
       CHILLICOTHE AND FARMINGTON.

MOZ001>031-035>038-043-044-053-054-030500-
...NORTHERN AND WESTERN MISSOURI...

CITY           SKY/WX    TMP DP  RH WIND       PRES   REMARKS
KANSAS CTY INT MOCLDY    77  71  82 S6        29.87R
KANSAS C DTWN  CLEAR     83  70  64 SW6       29.86R
LEE`S SUMMIT   PTCLDY    81  66  60 SW9       29.88R
ST JOSEPH      MOCLDY    83  71  67 S3        29.87R
CHILLICOTHE      N/A     69  66  90 S9        29.92R
KIRKSVILLE     CLOUDY    75  56  51 SW8       29.85R

$$
MOZ066>068-077>081-088>096-101>105-030500-
...SOUTHWEST MISSOURI...

CITY           SKY/WX    TMP DP  RH WIND       PRES   REMARKS
SPRINGFIELD    CLEAR     73  65  75 SW7       29.95R
JOPLIN         CLEAR     76  65  68 S5        29.94R

$$
MOZ032>034-039>042-045>050-055>058-069>072-030500-
...CENTRAL MISSOURI...

CITY           SKY/WX    TMP DP  RH WIND       PRES   REMARKS
COLUMBIA       CLOUDY    80  70  71 NW14G24   29.93R
JEFFERSON CITY MOCLDY    80  69  69 NW5       29.89R
ROLLA          PTCLDY    75  68  78 SW8       29.90S
SEDALIA        MOCLDY    79  67  66 N6        29.93R
WHITEMAN AFB   MOCLDY    76  68  75 E3        29.90R
WARRENSBURG    PTCLDY    79  64  61 S5        29.88R
OSAGE BEACH    CLEAR     79  66  65 SW6       29.91S

$$
MOZ051-052-059>065-030500-
...EAST CENTRAL MISSOURI...

CITY           SKY/WX    TMP DP  RH WIND       PRES   REMARKS
ST LOUIS INTL  CLOUDY    85  66  53 W7        29.86R
SPIRIT OF STL  MOCLDY    76  72  87 CALM      29.85R
ST CHARLES     CLOUDY    82  72  71 W3        29.84S

$$
MOZ072>076-082>087-097>100-106>115-030500-
...SOUTH CENTRAL AND SOUTHEAST MISSOURI...

CITY           SKY/WX    TMP DP  RH WIND       PRES   REMARKS
CAPE GIRARDEAU CLEAR     76  71  85 W3        29.89R
FARMINGTON     PTCLDY    75  70  83 CALM      29.94F
POPLAR BLUFF   CLEAR     78  72  81 S3        29.89R
WEST PLAINS    CLEAR     75  69  81 W3        29.97R

$$


USA.gov is the U.S. government's official web portal to all federal, state and local government web resources and services.